Weather in Kozyrevsk

Russia / Kamchatka Krai     56°02′57″N   159°52′08″E
temp.,
°C
wind,
m/s
gust,
m/s
humid.,
%
clouds,
%
prec.,
mm/h
press.,
hPa
HPBL,
m
28 february, sun
sun2800:00−12nne7158677 0.1 1015563
03:00−13nne81586100 0.1 1014569
06:00−13nne8168699 0.1 1013594
09:00−13nne81586100 0.1 1012669
12:00−12nne81686100 0.1 1009643
15:00−11nne91787100 0.1 1005621
18:00−11nne102080100 0.1 1001727
21:00−10nne102183100 0.1 999915
1 march, mon
mon100:00−10nne122381100 0.3 9961108
03:00−11nne112181100 0.2 9951158
06:00−12n81782100 0.3 9961066
09:00−12n51185100 0.0 996550
12:00−9n3682100 0.0 996483
15:00−7s1279100 0.0 996593
18:00−8s2494100 0.4 996333
21:00−10sse1195100 0.6 99948
2 march, tue
tue200:00−11w0192100 0.8 100122
03:00−12w1187100 0.0 100422
06:00−13nnw1188100 0.1 100723
09:00−13nnw0185100 0.1 101167
12:00−11ssw2274100 0.1 1013521
15:00−8ssw3465100 0.0 1016640
18:00−10ssw2380100 0.0 1018114
21:00−14w128298 0.0 102322
3 march, wed
wed300:00−15s129297 0.0 102647
03:00−17wsw119394 0.0 102720
06:00−16n119397 0.0 102620
09:00−14nne2489100 0.0 1023192
12:00−13nne3793100 0.6 1016388
15:00−11nne61487100 0.5 1007652
18:00−11nne81784100 0.7 997587
21:00−11nne81786100 0.2 988501
4 march, thu
thu400:00−8nne61387100 0.4 976378
03:00−6ssw71093100 0.6 972511
06:00−9ssw397291 1.3 980398
09:00−11w41761100 0.0 9871647
12:00−11w8155697 0.0 9921809
15:00−10wsw5145436 0.0 9972734
18:00−11ssw377265 0.0 1000439
21:00−13s4107827 0.0 1000281